View from above orbital plane
|
View from above satellite
|
Ground track
|
The orbit data is extracted from the following two-line orbital elements,
1 15755U 85042A 21018.74075518 .00000099 00000-0 68011-4 0 9999
2 15755 71.1126 119.8884 0035223 177.8745 182.2538 14.20459263846661
Epoch (UTC): | 18 January 2021 17:46:41 |
Eccentricity: | 0.0035223 |
inclination: | 71.1126° |
perigee height: | 798 km |
apogee height: | 849 km |
right ascension of ascending node: | 119.8884° |
argument of perigee: | 177.8745° |
revolutions per day: | 14.20459263 |
mean anomaly at epoch: | 182.2538° |
orbit number at epoch: | 84666 |
The dashed part of the orbit path shows where the satellite is in the earth's shadow,
|
|